| time (UTC) | temp F | wind direction | speed MPH | gust MPH | rain 1hr in | rain 24hr in | rain mn in | humidity % | barometer mb |
| 20260906002334 | 57 | 285 | 4.0 | 12.0 | 0.00 | 0.20 | 0.00 | 86 | 1021.4 |
| 20260906001814 | 57 | 263 | 4.0 | 12.0 | 0.00 | 0.20 | 0.00 | 86 | 1021.4 |
| 20260906001331 | 57 | 281 | 4.0 | 10.0 | 0.00 | 0.20 | 0.00 | 86 | 1021.4 |
| 20260906000851 | 57 | 278 | 5.0 | 13.0 | 0.00 | 0.20 | 0.00 | 86 | 1021.5 |
| 20260906000333 | 57 | 224 | 5.0 | 13.0 | 0.00 | 0.20 | 0.00 | 86 | 1021.4 |
| 20260905235812 | 57 | 269 | 6.0 | 12.0 | 0.00 | 0.20 | 0.00 | 86 | 1021.3 |
| 20260905235313 | 57 | 258 | 5.0 | 12.0 | 0.00 | 0.20 | 0.00 | 86 | 1021.3 |
| 20260905234812 | 57 | 260 | 6.0 | 13.0 | 0.00 | 0.20 | 0.00 | 85 | 1021.2 |
| 20260905234316 | 57 | 262 | 6.0 | 13.0 | 0.00 | 0.20 | 0.00 | 85 | 1021.2 |
| 20260905233819 | 57 | 281 | 5.0 | 10.0 | 0.00 | 0.20 | 0.00 | 85 | 1021.1 |
| 20260905233322 | 57 | 244 | 5.0 | 13.0 | 0.00 | 0.20 | 0.00 | 85 | 1021.2 |
| 20260905232323 | 57 | 260 | 5.0 | 11.0 | 0.00 | 0.20 | 0.00 | 85 | 1021.2 |
| 20260905231825 | 58 | 252 | 6.0 | 11.0 | 0.00 | 0.20 | 0.00 | 85 | 1021.1 |
| 20260905231328 | 58 | 268 | 5.0 | 12.0 | 0.00 | 0.20 | 0.00 | 85 | 1021.0 |
| 20260905230830 | 58 | 282 | 6.0 | 10.0 | 0.00 | 0.20 | 0.00 | 84 | 1021.0 |
| 20260905230332 | 58 | 275 | 5.0 | 12.0 | 0.00 | 0.20 | 0.00 | 84 | 1020.9 |
| 20260905225814 | 58 | 277 | 6.0 | 14.0 | 0.00 | 0.20 | 0.00 | 83 | 1020.9 |
| 20260905225317 | 58 | 283 | 9.0 | 14.0 | 0.00 | 0.20 | 0.00 | 83 | 1020.9 |
| 20260905224820 | 58 | 260 | 6.0 | 13.0 | 0.00 | 0.20 | 0.00 | 83 | 1021.0 |
| 20260905224323 | 58 | 289 | 6.0 | 12.0 | 0.00 | 0.20 | 0.00 | 83 | 1020.9 |
| 20260905223826 | 58 | 274 | 7.0 | 12.0 | 0.00 | 0.20 | 0.00 | 84 | 1020.9 |
| 20260905223329 | 58 | 276 | 5.0 | 14.0 | 0.00 | 0.20 | 0.00 | 84 | 1020.8 |
| 20260905222827 | 58 | 236 | 5.0 | 12.0 | 0.00 | 0.20 | 0.00 | 85 | 1020.8 |
| 20260905222328 | 58 | 283 | 4.0 | 16.0 | 0.00 | 0.20 | 0.00 | 86 | 1020.8 |
| 20260905221830 | 58 | 246 | 4.0 | 10.0 | 0.00 | 0.20 | 0.00 | 87 | 1020.6 |
| 20260905221332 | 58 | 274 | 4.0 | 9.0 | 0.00 | 0.20 | 0.00 | 87 | 1020.7 |
| 20260905220816 | 58 | 263 | 5.0 | 8.0 | 0.00 | 0.20 | 0.00 | 88 | 1020.6 |
| 20260905220338 | 57 | 269 | 5.0 | 9.0 | 0.00 | 0.20 | 0.00 | 88 | 1020.7 |
| 20260905215832 | 57 | 263 | 4.0 | 10.0 | 0.00 | 0.20 | 0.04 | 88 | 1020.7 |
| 20260905215314 | 57 | 260 | 3.0 | 9.0 | 0.00 | 0.20 | 0.04 | 88 | 1020.6 |
| 20260905214815 | 57 | 267 | 3.0 | 8.0 | 0.00 | 0.20 | 0.04 | 88 | 1020.5 |
| 20260905214318 | 57 | 235 | 6.0 | 8.0 | 0.00 | 0.20 | 0.04 | 88 | 1020.5 |
| 20260905213818 | 57 | 269 | 3.0 | 7.0 | 0.00 | 0.20 | 0.04 | 88 | 1020.5 |
| 20260905213338 | 57 | 269 | 3.0 | 6.0 | 0.00 | 0.20 | 0.04 | 88 | 1020.4 |
| 20260905212817 | 57 | 252 | 3.0 | 6.0 | 0.00 | 0.20 | 0.04 | 88 | 1020.4 |
| 20260905212317 | 58 | 256 | 3.0 | 7.0 | 0.00 | 0.20 | 0.04 | 88 | 1020.3 |
| 20260905211817 | 58 | 261 | 4.0 | 9.0 | 0.00 | 0.20 | 0.04 | 88 | 1020.2 |
| 20260905211318 | 58 | 257 | 3.0 | 7.0 | 0.00 | 0.20 | 0.04 | 87 | 1020.2 |
| 20260905210819 | 58 | 265 | 2.0 | 6.0 | 0.00 | 0.20 | 0.04 | 87 | 1020.1 |
| 20260905210339 | 58 | 270 | 2.0 | 7.0 | 0.00 | 0.20 | 0.04 | 86 | 1020.1 |
| 20260905205838 | 58 | 270 | 3.0 | 7.0 | 0.00 | 0.51 | 0.04 | 86 | 1020.2 |
| 20260905205319 | 58 | 275 | 3.0 | 10.0 | 0.00 | 0.51 | 0.04 | 85 | 1020.1 |
| 20260905204821 | 58 | 269 | 5.0 | 11.0 | 0.00 | 0.51 | 0.04 | 85 | 1020.1 |
| 20260905204324 | 58 | 245 | 4.0 | 11.0 | 0.00 | 0.51 | 0.04 | 86 | 1020.0 |
| 20260905203828 | 58 | 259 | 4.0 | 9.0 | 0.00 | 0.51 | 0.04 | 86 | 1019.9 |
| 20260905203312 | 58 | 274 | 4.0 | 10.0 | 0.00 | 0.51 | 0.04 | 86 | 1019.9 |
| 20260905202814 | 59 | 316 | 5.0 | 11.0 | 0.00 | 0.51 | 0.04 | 86 | 1019.8 |
| 20260905202315 | 59 | 274 | 5.0 | 13.0 | 0.00 | 0.51 | 0.04 | 85 | 1019.9 |
| 20260905201816 | 59 | 281 | 6.0 | 15.0 | 0.00 | 0.51 | 0.04 | 85 | 1019.9 |
| 20260905201317 | 59 | 267 | 6.0 | 15.0 | 0.00 | 0.51 | 0.04 | 86 | 1019.8 |
| 20260905200820 | 59 | 281 | 6.0 | 13.0 | 0.00 | 0.51 | 0.04 | 86 | 1019.7 |
| 20260905200322 | 59 | 275 | 4.0 | 13.0 | 0.00 | 0.51 | 0.04 | 86 | 1019.8 |
| 20260905195825 | 59 | 259 | 6.0 | 10.0 | 0.00 | 0.71 | 0.04 | 86 | 1019.7 |
| 20260905195348 | 59 | 265 | 4.0 | 10.0 | 0.00 | 0.71 | 0.04 | 86 | 1019.6 |
| 20260905194830 | 59 | 286 | 5.0 | 10.0 | 0.00 | 0.71 | 0.04 | 86 | 1019.5 |
| 20260905194331 | 59 | 276 | 5.0 | 13.0 | 0.00 | 0.71 | 0.04 | 86 | 1019.5 |
| 20260905193830 | 59 | 272 | 7.0 | 14.0 | 0.00 | 0.71 | 0.04 | 86 | 1019.5 |
| 20260905193330 | 59 | 274 | 9.0 | 14.0 | 0.00 | 0.71 | 0.04 | 87 | 1019.4 |
| 20260905192831 | 59 | 211 | 4.0 | 12.0 | 0.00 | 0.71 | 0.04 | 88 | 1019.3 |
| 20260905192312 | 59 | 260 | 3.0 | 12.0 | 0.00 | 0.71 | 0.04 | 88 | 1019.3 |
| 20260905191834 | 59 | 269 | 4.0 | 13.0 | 0.00 | 0.71 | 0.04 | 88 | 1019.2 |
| 20260905191329 | 59 | 263 | 5.0 | 13.0 | 0.00 | 0.71 | 0.04 | 89 | 1019.2 |
| 20260905190832 | 59 | 270 | 5.0 | 10.0 | 0.00 | 0.71 | 0.04 | 89 | 1019.0 |
| 20260905190313 | 58 | 214 | 5.0 | 9.0 | 0.00 | 0.71 | 0.04 | 89 | 1019.0 |
| 20260905185815 | 58 | 280 | 3.0 | 10.0 | 0.00 | 0.98 | 0.04 | 89 | 1018.9 |
| 20260905185338 | 58 | 251 | 4.0 | 9.0 | 0.00 | 0.98 | 0.04 | 89 | 1018.8 |
| 20260905184820 | 58 | 263 | 6.0 | 9.0 | 0.00 | 0.98 | 0.04 | 89 | 1018.9 |
| 20260905184322 | 58 | 274 | 6.0 | 10.0 | 0.00 | 0.98 | 0.04 | 89 | 1018.8 |
| 20260905183825 | 58 | 267 | 5.0 | 11.0 | 0.00 | 0.98 | 0.04 | 89 | 1018.8 |
| 20260905183328 | 58 | 262 | 4.0 | 11.0 | 0.00 | 0.98 | 0.04 | 89 | 1018.9 |
| 20260905182829 | 58 | 271 | 6.0 | 12.0 | 0.04 | 0.98 | 0.04 | 89 | 1018.9 |
| 20260905182331 | 58 | 267 | 8.0 | 13.0 | 0.20 | 0.98 | 0.04 | 90 | 1018.8 |
| 20260905181814 | 58 | 244 | 5.0 | 13.0 | 0.20 | 0.98 | 0.04 | 90 | 1018.7 |
| 20260905181318 | 58 | 274 | 5.0 | 10.0 | 0.20 | 0.98 | 0.04 | 90 | 1018.8 |
| 20260905180822 | 58 | 263 | 5.0 | 10.0 | 0.20 | 0.98 | 0.04 | 90 | 1018.6 |
| 20260905180323 | 58 | 251 | 5.0 | 10.0 | 0.20 | 0.98 | 0.04 | 90 | 1018.6 |
| 20260905175825 | 58 | 253 | 4.0 | 10.0 | 0.20 | 0.98 | 0.04 | 90 | 1018.5 |
| 20260905175329 | 58 | 262 | 6.0 | 10.0 | 0.20 | 0.98 | 0.04 | 89 | 1018.7 |
| 20260905174832 | 59 | 309 | 4.0 | 11.0 | 0.20 | 0.98 | 0.04 | 88 | 1018.5 |
| 20260905174334 | 59 | 295 | 3.0 | 11.0 | 0.20 | 0.98 | 0.04 | 88 | 1018.4 |
| 20260905173816 | 59 | 288 | 4.0 | 15.0 | 0.20 | 0.98 | 0.04 | 87 | 1018.6 |
| 20260905173316 | 60 | 345 | 7.0 | 17.0 | 0.20 | 0.98 | 0.04 | 86 | 1018.6 |
| 20260905172818 | 61 | 347 | 6.0 | 17.0 | 0.12 | 0.91 | 0.02 | 83 | 1018.6 |
| 20260905172319 | 63 | 334 | 8.0 | 17.0 | 0.00 | 0.79 | 0.00 | 79 | 1018.5 |
| 20260905171819 | 63 | 8 | 5.0 | 12.0 | 0.00 | 0.79 | 0.00 | 75 | 1018.4 |
| 20260905171320 | 63 | 347 | 2.0 | 10.0 | 0.00 | 0.79 | 0.00 | 76 | 1018.0 |
| 20260905170841 | 63 | 262 | 5.0 | 9.0 | 0.00 | 0.79 | 0.00 | 77 | 1017.7 |
| 20260905170320 | 62 | 265 | 1.0 | 7.0 | 0.00 | 0.79 | 0.00 | 79 | 1017.6 |
| 20260905165838 | 63 | 324 | 3.0 | 7.0 | 0.00 | 1.34 | 0.00 | 79 | 1017.6 |
| 20260905165337 | 62 | 279 | 2.0 | 10.0 | 0.00 | 1.34 | 0.00 | 79 | 1017.5 |
| 20260905164818 | 62 | 319 | 4.0 | 12.0 | 0.00 | 1.34 | 0.00 | 80 | 1017.5 |
| 20260905164320 | 62 | 354 | 4.0 | 12.0 | 0.00 | 1.34 | 0.00 | 79 | 1017.4 |
| 20260905163820 | 63 | 312 | 2.0 | 9.0 | 0.00 | 1.34 | 0.00 | 78 | 1017.4 |
| 20260905163321 | 63 | 333 | 3.0 | 14.0 | 0.00 | 1.34 | 0.00 | 77 | 1017.4 |
| 20260905162823 | 65 | 6 | 6.0 | 15.0 | 0.00 | 1.34 | 0.00 | 73 | 1017.4 |
| 20260905162324 | 67 | 279 | 6.0 | 22.0 | 0.00 | 1.34 | 0.00 | 68 | 1017.4 |
| 20260905161828 | 67 | 326 | 5.0 | 12.0 | 0.00 | 1.34 | 0.00 | 64 | 1017.4 |
| 20260905161329 | 67 | 331 | 6.0 | 13.0 | 0.00 | 1.34 | 0.00 | 64 | 1017.0 |
| 20260905160832 | 67 | 339 | 5.0 | 14.0 | 0.00 | 1.34 | 0.00 | 64 | 1016.7 |
| 20260905160316 | 66 | 340 | 5.0 | 19.0 | 0.00 | 1.34 | 0.00 | 66 | 1016.6 |
| 20260905155819 | 66 | 278 | 4.0 | 19.0 | 0.00 | 1.34 | 0.00 | 66 | 1016.5 |
| 20260905155322 | 66 | 294 | 7.0 | 15.0 | 0.00 | 1.34 | 0.00 | 66 | 1016.4 |
| 20260905154823 | 67 | 284 | 6.0 | 27.0 | 0.00 | 1.34 | 0.00 | 66 | 1016.5 |
| 20260905154343 | 69 | 297 | 14.0 | 27.0 | 0.00 | 1.34 | 0.00 | 60 | 1016.6 |
| 20260905153823 | 69 | 281 | 8.0 | 22.0 | 0.00 | 1.34 | 0.00 | 57 | 1016.1 |
| 20260905153323 | 69 | 248 | 8.0 | 16.0 | 0.00 | 1.34 | 0.00 | 57 | 1016.0 |
| 20260905152844 | 70 | 354 | 7.0 | 21.0 | 0.00 | 1.34 | 0.00 | 57 | 1015.7 |
| 20260905152323 | 70 | 287 | 10.0 | 21.0 | 0.00 | 1.34 | 0.00 | 56 | 1015.8 |
| 20260905151843 | 70 | 271 | 6.0 | 18.0 | 0.00 | 1.34 | 0.00 | 57 | 1015.6 |
| 20260905151321 | 70 | 269 | 9.0 | 18.0 | 0.00 | 1.34 | 0.00 | 56 | 1015.6 |
| 20260905150822 | 70 | 258 | 7.0 | 21.0 | 0.00 | 1.34 | 0.00 | 56 | 1015.6 |
| 20260905150323 | 70 | 274 | 6.0 | 21.0 | 0.00 | 1.34 | 0.00 | 55 | 1015.5 |
| 20260905145824 | 71 | 282 | 7.0 | 18.0 | 0.00 | 1.34 | 0.00 | 54 | 1015.5 |
| 20260905145323 | 71 | 277 | 12.0 | 26.0 | 0.00 | 1.34 | 0.00 | 54 | 1015.5 |
| 20260905144823 | 71 | 282 | 11.0 | 26.0 | 0.00 | 1.34 | 0.00 | 54 | 1015.5 |
| 20260905144344 | 70 | 310 | 9.0 | 22.0 | 0.00 | 1.34 | 0.00 | 54 | 1015.6 |
| 20260905143824 | 70 | 248 | 12.0 | 26.0 | 0.00 | 1.34 | 0.00 | 55 | 1015.6 |
| 20260905143325 | 70 | 287 | 11.0 | 24.0 | 0.00 | 1.34 | 0.00 | 55 | 1015.6 |
| 20260905142825 | 70 | 275 | 6.0 | 19.0 | 0.00 | 1.34 | 0.00 | 59 | 1015.6 |
| 20260905142327 | 70 | 269 | 12.0 | 19.0 | 0.00 | 1.34 | 0.00 | 59 | 1015.7 |
| 20260905141830 | 70 | 269 | 6.0 | 17.0 | 0.00 | 1.34 | 0.00 | 60 | 1015.5 |
| 20260905141331 | 70 | 270 | 6.0 | 17.0 | 0.00 | 1.34 | 0.00 | 60 | 1015.5 |
| 20260905140814 | 70 | 277 | 7.0 | 24.0 | 0.00 | 1.34 | 0.00 | 59 | 1015.4 |
| 20260905140316 | 70 | 286 | 13.0 | 27.0 | 0.00 | 1.34 | 0.00 | 59 | 1015.4 |
| 20260905135838 | 72 | 266 | 12.0 | 27.0 | 0.00 | 1.34 | 0.00 | 57 | 1015.6 |
| 20260905135319 | 72 | 269 | 4.0 | 25.0 | 0.00 | 1.34 | 0.00 | 58 | 1015.2 |
| 20260905134822 | 71 | 233 | 6.0 | 16.0 | 0.00 | 1.34 | 0.00 | 58 | 1015.2 |
| 20260905134345 | 70 | 272 | 8.0 | 16.0 | 0.00 | 1.34 | 0.00 | 58 | 1015.2 |
| 20260905133827 | 70 | 224 | 4.0 | 20.0 | 0.00 | 1.34 | 0.00 | 60 | 1015.2 |
| 20260905133330 | 70 | 275 | 9.0 | 20.0 | 0.00 | 1.34 | 0.00 | 59 | 1015.4 |
| 20260905132813 | 70 | 269 | 12.0 | 20.0 | 0.00 | 1.34 | 0.00 | 59 | 1015.3 |
| 20260905132316 | 69 | 295 | 10.0 | 18.0 | 0.00 | 1.34 | 0.00 | 60 | 1015.5 |
| 20260905131836 | 69 | 264 | 8.0 | 19.0 | 0.00 | 1.34 | 0.00 | 60 | 1015.6 |
| 20260905131316 | 69 | 243 | 10.0 | 20.0 | 0.00 | 1.34 | 0.00 | 59 | 1015.5 |
| 20260905130819 | 69 | 276 | 7.0 | 20.0 | 0.00 | 1.34 | 0.00 | 60 | 1015.6 |
| 20260905130322 | 69 | 264 | 11.0 | 19.0 | 0.00 | 1.34 | 0.00 | 59 | 1015.5 |
| 20260905125824 | 70 | 312 | 10.0 | 26.0 | 0.00 | 1.34 | 0.00 | 58 | 1015.5 |
| 20260905125346 | 71 | 255 | 16.0 | 26.0 | 0.00 | 1.34 | 0.00 | 58 | 1015.4 |
| 20260905124828 | 71 | 274 | 9.0 | 19.0 | 0.00 | 1.34 | 0.00 | 59 | 1015.3 |
| 20260905124331 | 71 | 248 | 9.0 | 22.0 | 0.00 | 1.34 | 0.00 | 59 | 1015.5 |
| 20260905123834 | 70 | 262 | 8.0 | 22.0 | 0.00 | 1.34 | 0.00 | 60 | 1015.5 |
| 20260905123336 | 70 | 261 | 9.0 | 19.0 | 0.00 | 1.34 | 0.00 | 60 | 1015.5 |
| 20260905122835 | 69 | 270 | 11.0 | 19.0 | 0.00 | 1.34 | 0.00 | 62 | 1015.6 |
| 20260905122319 | 68 | 270 | 9.0 | 16.0 | 0.00 | 1.34 | 0.00 | 65 | 1015.5 |
| 20260905121823 | 67 | 236 | 6.0 | 23.0 | 0.00 | 1.34 | 0.00 | 68 | 1015.6 |
| 20260905121327 | 67 | 274 | 9.0 | 23.0 | 0.00 | 1.34 | 0.00 | 69 | 1015.7 |
| 20260905120816 | 67 | 267 | 8.0 | 26.0 | 0.00 | 1.34 | 0.00 | 69 | 1015.8 |
| 20260905120318 | 68 | 251 | 12.0 | 26.0 | 0.00 | 1.34 | 0.00 | 63 | 1015.6 |
| 20260905115836 | 69 | 274 | 6.0 | 19.0 | 0.00 | 1.34 | 0.00 | 64 | 1015.6 |
| 20260905115336 | 68 | 319 | 10.0 | 20.0 | 0.00 | 1.34 | 0.00 | 64 | 1015.7 |
| 20260905114817 | 67 | 278 | 10.0 | 23.0 | 0.00 | 1.34 | 0.00 | 65 | 1015.9 |
| 20260905114319 | 68 | 281 | 14.0 | 23.0 | 0.00 | 1.34 | 0.00 | 64 | 1015.8 |
| 20260905113819 | 69 | 262 | 13.0 | 25.0 | 0.00 | 1.34 | 0.00 | 60 | 1015.8 |
| 20260905113320 | 69 | 229 | 13.0 | 25.0 | 0.00 | 1.34 | 0.00 | 59 | 1015.7 |
| 20260905112820 | 70 | 254 | 12.0 | 21.0 | 0.00 | 1.34 | 0.00 | 59 | 1015.5 |
| 20260905112340 | 70 | 270 | 7.0 | 25.0 | 0.00 | 1.34 | 0.00 | 60 | 1015.5 |
| 20260905111820 | 70 | 255 | 10.0 | 25.0 | 0.00 | 1.34 | 0.00 | 59 | 1015.4 |
| 20260905111321 | 70 | 248 | 8.0 | 20.0 | 0.00 | 1.34 | 0.00 | 58 | 1015.5 |
| 20260905110813 | 70 | 252 | 9.0 | 20.0 | 0.00 | 1.34 | 0.00 | 58 | 1015.5 |
| 20260905110332 | 70 | 257 | 9.0 | 21.0 | 0.00 | 1.34 | 0.00 | 59 | 1015.5 |
| 20260905105832 | 69 | 282 | 11.0 | 21.0 | 0.00 | 1.34 | 0.00 | 59 | 1015.6 |
| 20260905105314 | 69 | 275 | 9.0 | 20.0 | 0.00 | 1.34 | 0.00 | 62 | 1015.8 |
| 20260905104836 | 69 | 243 | 13.0 | 20.0 | 0.00 | 1.34 | 0.00 | 62 | 1015.8 |
| 20260905104338 | 69 | 268 | 8.0 | 19.0 | 0.00 | 1.34 | 0.00 | 62 | 1015.9 |
| 20260905103817 | 68 | 257 | 8.0 | 19.0 | 0.00 | 1.34 | 0.00 | 64 | 1015.9 |
| 20260905103318 | 68 | 276 | 8.0 | 19.0 | 0.00 | 1.34 | 0.00 | 64 | 1015.9 |
| 20260905102819 | 67 | 273 | 10.0 | 20.0 | 0.00 | 1.34 | 0.00 | 64 | 1016.0 |
| 20260905102318 | 67 | 279 | 10.0 | 22.0 | 0.00 | 1.34 | 0.00 | 63 | 1016.1 |
| 20260905101819 | 67 | 277 | 13.0 | 27.0 | 0.00 | 1.34 | 0.00 | 62 | 1016.0 |
| 20260905101320 | 68 | 275 | 17.0 | 27.0 | 0.00 | 1.34 | 0.00 | 60 | 1016.1 |
| 20260905100821 | 68 | 264 | 9.0 | 23.0 | 0.00 | 1.34 | 0.00 | 62 | 1015.9 |
| 20260905100319 | 68 | 278 | 12.0 | 24.0 | 0.00 | 1.34 | 0.00 | 61 | 1016.0 |
| 20260905095820 | 68 | 294 | 7.0 | 20.0 | 0.00 | 1.34 | 0.00 | 61 | 1016.1 |
| 20260905095322 | 68 | 255 | 10.0 | 20.0 | 0.00 | 1.34 | 0.00 | 62 | 1015.9 |
| 20260905094824 | 67 | 198 | 10.0 | 18.0 | 0.00 | 1.34 | 0.00 | 63 | 1015.9 |
| 20260905094327 | 67 | 265 | 7.0 | 18.0 | 0.00 | 1.34 | 0.00 | 64 | 1016.0 |
| 20260905093830 | 67 | 257 | 9.0 | 25.0 | 0.00 | 1.34 | 0.00 | 63 | 1016.2 |
| 20260905093332 | 67 | 274 | 10.0 | 25.0 | 0.00 | 1.34 | 0.00 | 63 | 1015.9 |
| 20260905092814 | 67 | 220 | 9.0 | 20.0 | 0.00 | 1.34 | 0.00 | 64 | 1016.0 |
| 20260905092402 | 67 | 291 | 8.0 | 18.0 | 0.00 | 1.34 | 0.00 | 64 | 1016.0 |
| 20260905091839 | 67 | 263 | 6.0 | 20.0 | 0.00 | 1.34 | 0.00 | 67 | 1015.9 |
| 20260905091320 | 66 | 276 | 10.0 | 20.0 | 0.00 | 1.34 | 0.00 | 68 | 1015.9 |
| 20260905090821 | 65 | 297 | 9.0 | 21.0 | 0.00 | 1.34 | 0.00 | 68 | 1015.9 |
| 20260905090323 | 65 | 288 | 10.0 | 21.0 | 0.00 | 1.34 | 0.00 | 68 | 1015.8 |
| 20260905085826 | 66 | 323 | 8.0 | 20.0 | 0.00 | 1.34 | 0.00 | 69 | 1015.8 |
| 20260905085329 | 66 | 316 | 8.0 | 23.0 | 0.00 | 1.34 | 0.00 | 67 | 1015.8 |
| 20260905084830 | 66 | 250 | 11.0 | 23.0 | 0.00 | 1.34 | 0.00 | 66 | 1015.9 |
| 20260905084330 | 66 | 262 | 6.0 | 22.0 | 0.00 | 1.34 | 0.00 | 70 | 1015.6 |
| 20260905083816 | 66 | 255 | 13.0 | 22.0 | 0.00 | 1.34 | 0.00 | 67 | 1015.8 |
| 20260905083317 | 66 | 238 | 10.0 | 22.0 | 0.00 | 1.34 | 0.00 | 69 | 1015.6 |
| 20260905082816 | 66 | 264 | 9.0 | 21.0 | 0.00 | 1.34 | 0.00 | 71 | 1015.6 |
| 20260905082339 | 66 | 275 | 10.0 | 16.0 | 0.00 | 1.34 | 0.00 | 72 | 1015.5 |
| 20260905081841 | 65 | 293 | 10.0 | 17.0 | 0.00 | 1.34 | 0.00 | 72 | 1015.5 |
| 20260905081321 | 65 | 278 | 11.0 | 19.0 | 0.00 | 1.34 | 0.00 | 73 | 1015.6 |
| 20260905080821 | 65 | 282 | 7.0 | 21.0 | 0.00 | 1.34 | 0.00 | 74 | 1015.5 |
| 20260905080338 | 64 | 262 | 8.0 | 22.0 | 0.00 | 1.34 | 0.00 | 75 | 1015.5 |
| 20260905075818 | 65 | 333 | 7.0 | 22.0 | 0.00 | 1.34 | 0.00 | 75 | 1015.4 |
| 20260905075318 | 65 | 317 | 7.0 | 22.0 | 0.00 | 1.34 | 0.00 | 76 | 1015.4 |
| 20260905074819 | 64 | 290 | 9.0 | 22.0 | 0.00 | 1.34 | 0.00 | 75 | 1015.4 |
| 20260905074320 | 65 | 279 | 8.0 | 21.0 | 0.00 | 1.34 | 0.00 | 76 | 1015.3 |
| 20260905073819 | 64 | 275 | 7.0 | 21.0 | 0.00 | 1.34 | 0.00 | 76 | 1015.2 |
| 20260905073320 | 64 | 266 | 5.0 | 18.0 | 0.00 | 1.34 | 0.00 | 78 | 1015.1 |
| 20260905072822 | 64 | 267 | 9.0 | 18.0 | 0.00 | 1.34 | 0.00 | 77 | 1015.1 |
| 20260905072344 | 64 | 277 | 10.0 | 16.0 | 0.00 | 1.34 | 0.00 | 77 | 1015.1 |
| 20260905071824 | 64 | 278 | 6.0 | 16.0 | 0.00 | 1.34 | 0.00 | 78 | 1015.1 |
| 20260905071345 | 63 | 280 | 8.0 | 20.0 | 0.00 | 1.34 | 0.00 | 78 | 1015.1 |
| 20260905070824 | 63 | 283 | 10.0 | 19.0 | 0.00 | 1.34 | 0.00 | 78 | 1015.2 |
| 20260905070324 | 63 | 305 | 8.0 | 17.0 | 0.00 | 1.34 | 0.00 | 79 | 1015.1 |
| 20260905065826 | 63 | 231 | 7.0 | 12.0 | 0.00 | 1.34 | 0.00 | 80 | 1015.0 |
| 20260905065329 | 63 | 275 | 7.0 | 18.0 | 0.00 | 1.34 | 0.00 | 80 | 1014.9 |
| 20260905064830 | 62 | 200 | 7.0 | 18.0 | 0.00 | 1.34 | 0.00 | 80 | 1014.9 |
| 20260905064313 | 62 | 276 | 6.0 | 16.0 | 0.00 | 1.34 | 0.00 | 81 | 1014.8 |
| 20260905063814 | 62 | 287 | 7.0 | 18.0 | 0.00 | 1.34 | 0.00 | 82 | 1014.8 |
| 20260905063315 | 62 | 250 | 8.0 | 18.0 | 0.00 | 1.34 | 0.00 | 81 | 1014.8 |
| 20260905062818 | 61 | 257 | 5.0 | 16.0 | 0.00 | 1.34 | 0.00 | 82 | 1014.8 |
| 20260905062323 | 61 | 278 | 7.0 | 15.0 | 0.00 | 1.34 | 0.00 | 83 | 1014.7 |
| 20260905061825 | 61 | 259 | 4.0 | 14.0 | 0.00 | 1.34 | 0.00 | 84 | 1014.7 |
| 20260905061325 | 60 | 281 | 5.0 | 14.0 | 0.00 | 1.34 | 0.00 | 84 | 1014.6 |
| 20260905060825 | 60 | 291 | 8.0 | 13.0 | 0.00 | 1.34 | 0.00 | 84 | 1014.7 |
| 20260905060326 | 60 | 278 | 8.0 | 13.0 | 0.00 | 1.34 | 0.00 | 85 | 1014.7 |
| 20260905055826 | 60 | 281 | 6.0 | 13.0 | 0.00 | 1.34 | 0.00 | 86 | 1014.7 |
| 20260905055327 | 59 | 267 | 4.0 | 13.0 | 0.00 | 1.34 | 0.00 | 86 | 1014.5 |
| 20260905054828 | 59 | 241 | 6.0 | 11.0 | 0.00 | 1.34 | 0.00 | 87 | 1014.6 |
| 20260905054328 | 59 | 257 | 6.0 | 11.0 | 0.00 | 1.34 | 0.00 | 87 | 1014.5 |
| 20260905053852 | 59 | 269 | 5.0 | 8.0 | 0.00 | 1.34 | 0.00 | 87 | 1014.5 |
| 20260905053334 | 59 | 255 | 2.0 | 10.0 | 0.00 | 1.34 | 0.00 | 88 | 1014.4 |
| 20260905052816 | 59 | 252 | 6.0 | 10.0 | 0.00 | 1.34 | 0.00 | 87 | 1014.4 |
| 20260905052319 | 59 | 281 | 3.0 | 9.0 | 0.00 | 1.34 | 0.00 | 88 | 1014.3 |
| 20260905051821 | 59 | 265 | 3.0 | 9.0 | 0.00 | 1.34 | 0.00 | 88 | 1014.2 |
| 20260905051324 | 59 | 269 | 4.0 | 10.0 | 0.00 | 1.34 | 0.00 | 88 | 1014.2 |
| 20260905050847 | 59 | 278 | 5.0 | 10.0 | 0.00 | 1.34 | 0.00 | 88 | 1014.1 |
| 20260905050330 | 59 | 275 | 4.0 | 10.0 | 0.00 | 1.34 | 0.00 | 88 | 1014.0 |
| 20260905045853 | 59 | 248 | 4.0 | 11.0 | 0.00 | 1.34 | 0.00 | 88 | 1014.0 |
| 20260905045332 | 58 | 285 | 7.0 | 11.0 | 0.00 | 1.34 | 0.00 | 88 | 1013.9 |
| 20260905044853 | 58 | 254 | 4.0 | 9.0 | 0.00 | 1.34 | 0.00 | 88 | 1013.8 |
| 20260905044312 | 58 | 218 | 3.0 | 10.0 | 0.00 | 1.34 | 0.00 | 89 | 1013.8 |
| 20260905043813 | 59 | 222 | 3.0 | 10.0 | 0.00 | 1.34 | 0.00 | 88 | 1013.7 |
| 20260905043315 | 59 | 281 | 3.0 | 9.0 | 0.00 | 1.34 | 0.00 | 88 | 1013.6 |
| 20260905042835 | 59 | 273 | 4.0 | 8.0 | 0.00 | 1.34 | 0.00 | 88 | 1013.5 |
| 20260905042315 | 59 | 277 | 4.0 | 12.0 | 0.00 | 1.34 | 0.00 | 88 | 1013.4 |
| 20260905041817 | 59 | 264 | 6.0 | 13.0 | 0.00 | 1.34 | 0.00 | 88 | 1013.4 |
| 20260905041320 | 59 | 249 | 5.0 | 13.0 | 0.00 | 1.34 | 0.00 | 88 | 1013.4 |
| 20260905040842 | 59 | 263 | 4.0 | 11.0 | 0.00 | 1.34 | 0.00 | 88 | 1013.3 |
| 20260905040324 | 59 | 276 | 5.0 | 12.0 | 0.00 | 1.34 | 0.00 | 88 | 1013.3 |
| 20260905035847 | 59 | 277 | 7.0 | 12.0 | 0.00 | 1.34 | 0.00 | 88 | 1013.3 |
| 20260905035326 | 59 | 283 | 4.0 | 10.0 | 0.00 | 1.34 | 0.00 | 87 | 1013.2 |
| 20260905034827 | 60 | 262 | 6.0 | 10.0 | 0.00 | 1.34 | 0.00 | 87 | 1013.2 |
| 20260905034326 | 60 | 285 | 5.0 | 8.0 | 0.00 | 1.34 | 0.00 | 87 | 1013.2 |
| 20260905033827 | 60 | 268 | 5.0 | 10.0 | 0.00 | 1.34 | 0.00 | 88 | 1013.1 |
| 20260905033328 | 60 | 259 | 6.0 | 13.0 | 0.00 | 1.34 | 0.00 | 87 | 1013.1 |
| 20260905032830 | 60 | 276 | 7.0 | 13.0 | 0.00 | 1.34 | 0.00 | 87 | 1013.1 |
| 20260905032352 | 60 | 266 | 5.0 | 12.0 | 0.00 | 1.34 | 0.00 | 87 | 1013.0 |
| 20260905031812 | 60 | 264 | 5.0 | 11.0 | 0.00 | 1.34 | 0.00 | 88 | 1012.9 |
| 20260905031314 | 60 | 281 | 5.0 | 12.0 | 0.00 | 1.34 | 0.00 | 87 | 1012.8 |
| 20260905030835 | 60 | 296 | 6.0 | 13.0 | 0.00 | 1.34 | 0.00 | 87 | 1012.8 |
| 20260905030315 | 60 | 276 | 6.0 | 13.0 | 0.00 | 1.34 | 0.00 | 88 | 1012.7 |
| 20260905025817 | 60 | 276 | 3.0 | 13.0 | 0.00 | 1.34 | 0.00 | 88 | 1012.6 |
| 20260905025320 | 60 | 282 | 6.0 | 13.0 | 0.00 | 1.34 | 0.00 | 88 | 1012.5 |
| 20260905024843 | 61 | 276 | 4.0 | 12.0 | 0.00 | 1.34 | 0.00 | 88 | 1012.5 |
| 20260905024325 | 61 | 255 | 6.0 | 11.0 | 0.00 | 1.34 | 0.00 | 88 | 1012.4 |
| 20260905023828 | 61 | 281 | 5.0 | 10.0 | 0.00 | 1.34 | 0.00 | 88 | 1012.4 |
| 20260905023330 | 61 | 267 | 5.0 | 12.0 | 0.00 | 1.34 | 0.00 | 88 | 1012.3 |
| 20260905022849 | 61 | 262 | 7.0 | 15.0 | 0.00 | 1.34 | 0.00 | 88 | 1012.3 |
| 20260905022352 | 61 | 265 | 7.0 | 15.0 | 0.00 | 1.34 | 0.00 | 88 | 1012.2 |
| 20260905021816 | 61 | 271 | 6.0 | 16.0 | 0.00 | 1.34 | 0.00 | 88 | 1012.2 |
| 20260905021320 | 61 | 262 | 6.0 | 13.0 | 0.00 | 1.34 | 0.00 | 88 | 1012.2 |
| 20260905020823 | 61 | 265 | 6.0 | 10.0 | 0.00 | 1.34 | 0.00 | 89 | 1012.1 |
| 20260905020326 | 61 | 230 | 5.0 | 10.0 | 0.00 | 1.34 | 0.00 | 89 | 1012.0 |
| 20260905015828 | 61 | 275 | 3.0 | 10.0 | 0.00 | 1.34 | 0.00 | 89 | 1011.9 |
| 20260905015332 | 61 | 285 | 5.0 | 15.0 | 0.00 | 1.34 | 0.00 | 89 | 1011.9 |
| 20260905014816 | 61 | 261 | 5.0 | 15.0 | 0.00 | 1.34 | 0.00 | 89 | 1012.0 |
| 20260905014316 | 61 | 278 | 4.0 | 9.0 | 0.00 | 1.34 | 0.00 | 90 | 1012.0 |
| 20260905013817 | 61 | 267 | 5.0 | 11.0 | 0.00 | 1.34 | 0.00 | 90 | 1012.0 |
| 20260905013317 | 61 | 253 | 5.0 | 11.0 | 0.00 | 1.34 | 0.00 | 91 | 1011.9 |
| 20260905012820 | 61 | 224 | 4.0 | 8.0 | 0.00 | 1.34 | 0.00 | 91 | 1011.8 |
| 20260905012320 | 61 | 252 | 4.0 | 8.0 | 0.00 | 1.34 | 0.00 | 91 | 1011.8 |
| 20260905011820 | 61 | 267 | 2.0 | 8.0 | 0.00 | 1.34 | 0.00 | 91 | 1011.7 |
| 20260905011323 | 61 | 259 | 4.0 | 9.0 | 0.00 | 1.34 | 0.00 | 90 | 1011.7 |
| 20260905010826 | 61 | 272 | 4.0 | 15.0 | 0.00 | 1.34 | 0.00 | 90 | 1011.7 |
| 20260905010327 | 61 | 264 | 8.0 | 15.0 | 0.00 | 1.34 | 0.00 | 91 | 1011.8 |
| 20260905005831 | 61 | 272 | 4.0 | 14.0 | 0.00 | 1.34 | 0.00 | 91 | 1011.7 |
| 20260905005335 | 61 | 270 | 5.0 | 14.0 | 0.00 | 1.34 | 0.00 | 91 | 1011.7 |
| 20260905004814 | 61 | 263 | 6.0 | 12.0 | 0.00 | 1.34 | 0.00 | 92 | 1011.7 |
| 20260905004314 | 61 | 233 | 5.0 | 12.0 | 0.00 | 1.34 | 0.00 | 92 | 1011.7 |
| 20260905003814 | 61 | 275 | 3.0 | 10.0 | 0.00 | 1.34 | 0.00 | 92 | 1011.7 |
| 20260905003314 | 61 | 278 | 5.0 | 11.0 | 0.00 | 1.34 | 0.00 | 92 | 1011.6 |
| 20260905002815 | 61 | 258 | 7.0 | 11.0 | 0.00 | 1.34 | 0.00 | 92 | 1011.7 |